Regional Weather Roundup
Issued by NWS

Home | Current Version | Previous Version | Graphics & Text | Print | Product List | Glossary On
Versions: 1 2 3 4 5 6 7 8 9 10 11 12 13 14 15 16 17 18 19 20 21 22 23 24 25 26 27 28 29 30 31 32 33 34 35 36 37 38 39 40 41 42 43 44 45 46 47 48 49 50
000
ASUS43 KDMX 290407
RWRIA

WEATHER ROUNDUP FOR IOWA
NATIONAL WEATHER SERVICE DES MOINES IA
1000 PM CST WED JAN 28 2015

NOTE: "FAIR" INDICATES FEW OR NO CLOUDS BELOW 12,000 FEET WITH NO
SIGNIFICANT WEATHER AND/OR OBSTRUCTIONS TO VISIBILITY.

* - THESE STATIONS ARE NOT NWS STATIONS...THUS NOT UNDER NWS
QUALITY CONTROL.  THEY ALSO DO NOT REPORT WEATHER SUCH
AS PRECIPITATION OR FOG.

IAZ001>003-012>014-020>022-031>034-043>046-290500-
   NORTHWEST IOWA

CITY           SKY/WX    TMP DP  RH WIND       PRES   REMARKS
CARROLL *      CLOUDY    34  34 100 NW15      29.78R FOG     WCI  24
CHEROKEE *     CLOUDY    36  34  93 N12       29.85R FOG     WCI  27
DENISON *      CLOUDY    39  37  93 N15       29.81R WCI  31
LE MARS *      CLOUDY    39  36  87 NW20G25   29.90R WCI  30
ORANGE CITY *  CLOUDY    37  34  87 NW14      29.88R FOG     WCI  29
SHELDON *      CLOUDY    36  36 100 NW21G26   29.86R WCI  24
SIOUX CITY     CLOUDY    42  36  79 NW29G41   29.89R
SPENCER        CLOUDY    35  32  88 NW15      29.83R FOG     WCI  25
STORM LAKE *   CLOUDY    36  34  93 N20       29.82R FOG     WCI  25
$$

IAZ055>058-069>071-079>083-090>094-290500-
   SOUTHWEST IOWA

CITY           SKY/WX    TMP DP  RH WIND       PRES   REMARKS
ATLANTIC *     PTCLDY    43  36  75 NW21G29   29.77R
AUDUBON *      MOCLDY    39  36  87 NW16G22   29.79R WCI  30
CLARINDA *     CLEAR     50  37  62 NW23G35   29.78R
COUNCIL BLFS * PTCLDY    45  39  81 NW22G33   29.83R
CRESTON *      CLEAR     39  36  87 NW13      29.72R WCI  32
HARLAN  *      MOCLDY    41  41 100 NW18G24   29.84R
LAMONI         CLEAR     44  36  73 W14       29.70R
RED OAK *      MOCLDY    46  37  71 NW23G31   29.79R
SHENANDOAH *   CLEAR     50  39  66 NW24G36   29.80R
$$

IAZ047>049-059>061-072>074-084-290500-
   CENTRAL IOWA

CITY           SKY/WX    TMP DP  RH WIND       PRES   REMARKS
AMES           CLEAR     31  29  92 N8        29.71R WCI  23
ANKENY *       CLEAR     36  32  87 N5        29.70R WCI  32
CHARITON *     CLEAR     34  32  93 W6        29.66R WCI  29
DES MOINES     PTCLDY    38  32  79 N6        29.69R WCI  33
GRINNELL*      CLEAR     32  32 100 NE6       29.69R WCI  26
KNOXVILLE *    CLEAR     34  30  86 NW7       29.66R WCI  28
MARSHALLTOWN   CLEAR     32  30  92 E8        29.68F WCI  25
PELLA *        CLEAR     36  32  87 E6        29.68R WCI  31
PERRY *          N/A     34  32  93 NW6       29.72R FOG     WCI  29
$$

IAZ004>006-015-016-023>025-035-036-290500-
   NORTH CENTRAL IOWA

CITY           SKY/WX    TMP DP  RH WIND       PRES   REMARKS
ALGONA *       CLOUDY    34  34 100 N13G20    29.79R FOG     WCI  25
CLARION *      CLOUDY    34  34 100 NW12      29.76R FOG     WCI  25
ESTHERVILLE    CLOUDY    32  31  96 NW16      29.81R FOG     WCI  21
FORT DODGE *   CLOUDY    34  30  86 N9G16     29.77R WCI  26
MASON CITY     CLOUDY    33  31  92 N8        29.76S FOG     WCI  26
FOREST CITY *  CLOUDY    34  32  93 N9        29.76R FOG     WCI  26
IOWA FALLS *     N/A     32  30  93 NW3       29.73R FOG
$$

IAZ007>011-017>019-026>030-037>042-050>054-066-290500-
   NORTHEAST IOWA

CITY           SKY/WX    TMP DP  RH WIND       PRES   REMARKS
CEDAR RAPIDS   CLEAR     33  31  92 E10       29.68F WCI  25
CHARLES CITY * CLOUDY    32  32 100 NE6       29.75S WCI  26
CLINTON *      CLOUDY    36  28  75 SE12      29.77F WCI  27
DECORAH *      CLOUDY    32  28  86 CALM      29.75S
DUBUQUE        MOCLDY    32  29  88 SE12      29.73F WCI  23
MONTICELLO *   CLEAR     34  32  93 SE10      29.72F WCI  26
OELWEIN *      CLEAR     32  30  93 SE8       29.72F WCI  25
WATERLOO       CLEAR     30  29  96 E6        29.71F WCI  24
$$

IAZ064-065-067-068-078-290500-
   EAST CENTRAL IOWA

CITY           SKY/WX    TMP DP  RH WIND       PRES   REMARKS
DAVENPORT      CLOUDY    36  29  75 SE14      29.73F WCI  27
IOWA CITY      CLEAR     35  31  85 E5        29.71F WCI  31
MT. PLEASANT * CLEAR     39  32  75 S15G24    29.68F WCI  31
MUSCATINE *    CLEAR     37  32  81 VRB7      29.71F WCI  32
QUAD CITIES    MOCLDY    37  30  75 SE9       29.73F WCI  30
$$

IAZ062-063-075>077-085>089-095>099-290500-
   SOUTHEAST IOWA

CITY           SKY/WX    TMP DP  RH WIND       PRES   REMARKS
BURLINGTON     PTCLDY    41  33  73 S15G24    29.71F
FAIRFIELD *    CLEAR     39  32  75 SE13      29.65F WCI  32
FORT MADISON * CLEAR     39  34  81 S14G21    29.71F WCI  31
KEOKUK *       CLEAR     41  34  75 SE8       29.70F
OSKALOOSA *      N/A     34  32  93 E7        29.65F WCI  28
CENTERVILLE *    N/A     41  37  87 S8        29.66S
OTTUMWA        CLEAR     41  33  73 S6        29.64F
WASHINGTON *   CLEAR     37  36  93 SE10      29.67F WCI  30
$$

ABBREVIATIONS USED IN REMARKS
   TC - TEMPERATURES IN CELSIUS
  WCI - WIND CHILL INDEX
   HX - HEAT INDEX
  VSB - VISIBILITY
$$



USA.gov is the U.S. government's official web portal to all federal, state and local government web resources and services.